Location: Newark
(48.6461°N, 4.3644°W)
Time: 01:08:55
(UTC+00:00)

S-56A Canister/Altair - Pass Details

Date: 18 January 2020
Orbit: 633 x 2500 km, 38.9° (Epoch: 26 February)

Event Time Altitude Azimuth Distance (km) Brightness Sun altitude
Rises 01:00:34 0° 247° (WSW) 2,925 - -61.3°
Reaches altitude 10° 01:03:06 10° 234° (SW) 2,010 - -61.1°
Maximum altitude 01:06:48 26° 177° (S) 1,310 - -61.0°
Drops below altitude 10° 01:10:57 10° 122° (ESE) 2,281 - -60.7°
Sets 01:14:02 0° 110° (ESE) 3,420 - -60.5°
